Location: *
(52.2090°N, 4.1550°W)
Time: 02:32:38
(UTC+00:00)

USA 267 - Pass Details

Date: 19 July 2019
Orbit: 1101 x 1106 km, 123.0° (Epoch: 18 August)

Event Time Altitude Azimuth Distance (km) Brightness Sun altitude
Exits shadow 21:49:56 11° 159° (SSE) 2,904 4.9 -9.8°
Maximum altitude 21:55:47 38° 226° (SW) 1,618 4.1 -10.3°
Drops below altitude 10° 22:01:48 10° 293° (WNW) 2,966 6.4 -10.8°
Sets 22:04:31 0° 301° (WNW) 3,928 7.4 -11.0°
